Weather History for Hastings, NE

Change the Weather History Date:

Friday, May 17, 2013

  Actual Average Record
Temperature  
Mean Temperature 72 °F 62 °F  
Max Temperature 86 °F 72 °F 95 °F (1934)
Min Temperature 58 °F 51 °F 32 °F (2014)
Degree Days  
Heating Degree Days 0 5  
Month to date heating degree days 176 122  
Since 1 July heating degree days 6273 5961  
Cooling Degree Days 7 2  
Month to date cooling degree days 32 18  
Year to date cooling degree days 35 23  
Growing Degree Days 20 (Base 50)    
Moisture  
Dew Point 57 °F    
Average Humidity 64    
Maximum Humidity 93    
Minimum Humidity 34    
Precipitation  
Precipitation 0.00 in 0.16 in 1.36 in (1983)
Month to date precipitation 0.86 2.67  
Year to date precipitation 6.99 7.92  
Snow  
Snow 0.00 in 0.00 in - ()
Month to date snowfall 0.3 0.0  
Since 1 July snowfall 35.7 28.8  
Snow Depth 0.00 in    
Sea Level Pressure  
Sea Level Pressure 29.81 in    
Wind  
Wind Speed 8 mph (South)    
Max Wind Speed 18 mph    
Max Gust Speed 28 mph    
Visibility 10 miles    
Events      
T = Trace of Precipitation, MM = Missing Value Source: NWS Daily Summary

Daily Weather History Graph

Daily Weather History Graph

Search for Another Location

Airport:

Trip Planner

Search our weather history database for the weather conditions in past years. The results will help you decide how hot, cold, wet, or windy it might be!

Date:

Astronomy

May. 17, 2013 Rise Set
Actual Time 6:14 AM CDT 8:45 PM CDT
Civil Twilight 5:43 AM CDT 9:17 PM CDT
Nautical Twilight 5:04 AM CDT 9:56 PM CDT
Astronomical Twilight 4:21 AM CDT 10:39 PM CDT
Moon 12:49 PM CDT (5/17) 1:38 AM CDT (5/17)
Length of Visible Light 15h 33m
Length of Day
14h 31m
Waxing Crescent, 45% of the Moon is Illuminated
May 17
Waxing Crescent
May 17
First Quarter
May 24
Full
May 31
Last Quarter
Jun 8
New

Hourly Weather History & Observations

Time (CDT) Temp. Heat Index Dew Point Humidity Pressure Visibility Wind Dir Wind Speed Gust Speed Precip Events Conditions
12:53 AM 66.2 °F - 57.2 °F 73% 29.81 in 10.0 mi SSE 6.9 mph - N/A   Clear
1:53 AM 64.0 °F - 57.0 °F 78% 29.78 in 10.0 mi SSE 6.9 mph - N/A   Clear
2:53 AM 62.1 °F - 57.0 °F 84% 29.77 in 10.0 mi South 6.9 mph - N/A   Clear
3:53 AM 60.1 °F - 57.0 °F 90% 29.80 in 10.0 mi South 5.8 mph - N/A   Clear
4:53 AM 60.1 °F - 55.9 °F 86% 29.82 in 10.0 mi South 5.8 mph - N/A   Clear
5:53 AM 57.9 °F - 55.9 °F 93% 29.83 in 9.0 mi South 6.9 mph - N/A   Clear
6:53 AM 57.2 °F - 55.4 °F 94% 29.87 in 10.0 mi South 4.6 mph - N/A   Clear
7:53 AM 62.1 °F - 57.0 °F 84% 29.85 in 10.0 mi South 3.5 mph - N/A   Clear
8:53 AM 66.9 °F - 57.9 °F 73% 29.85 in 10.0 mi South 4.6 mph - N/A   Clear
9:53 AM 72.0 °F - 57.9 °F 61% 29.86 in 10.0 mi SSW 5.8 mph - N/A   Clear
10:53 AM 75.0 °F - 59.0 °F 57% 29.86 in 10.0 mi Variable 6.9 mph 16.1 mph N/A   Clear
11:53 AM 78.1 °F - 59.0 °F 52% 29.84 in 10.0 mi SW 9.2 mph - N/A   Clear
12:53 PM 80.1 °F 80.6 °F 57.9 °F 47% 29.83 in 10.0 mi SSW 6.9 mph - N/A   Clear
1:53 PM 82.4 °F 81.7 °F 55.4 °F 39% 29.86 in 10.0 mi South 4.6 mph - N/A   Clear
2:53 PM 84.0 °F 82.6 °F 54.0 °F 35% 29.80 in 10.0 mi SSE 10.4 mph - N/A   Clear
3:53 PM 84.9 °F 83.3 °F 54.0 °F 34% 29.79 in 10.0 mi SSE 11.5 mph 18.4 mph N/A   Clear
4:53 PM 84.0 °F 82.6 °F 54.0 °F 35% 29.78 in 10.0 mi South 11.5 mph 19.6 mph N/A   Clear
5:53 PM 84.0 °F 83.0 °F 55.9 °F 38% 29.77 in 10.0 mi SSE 12.7 mph - N/A   Clear
6:53 PM 82.0 °F 81.6 °F 55.9 °F 41% 29.77 in 10.0 mi South 10.4 mph 23.0 mph N/A   Clear
7:53 PM 80.1 °F 80.4 °F 57.0 °F 45% 29.77 in 10.0 mi SSE 10.4 mph 21.9 mph N/A   Clear
8:53 PM 78.1 °F - 57.0 °F 48% 29.79 in 10.0 mi SSE 10.4 mph - N/A   Clear
9:53 PM 73.0 °F - 59.0 °F 61% 29.82 in 10.0 mi SSE 9.2 mph - N/A   Clear
10:53 PM 70.0 °F - 59.0 °F 68% 29.82 in 10.0 mi SE 9.2 mph - N/A   Clear
11:53 PM 69.1 °F - 59.0 °F 70% 29.82 in 10.0 mi SSE 9.2 mph - N/A   Clear